NV7SW Weather Reports


time (UTC)temp
C
wind
direction
speed
KPH
gust
KPH
rain 1hr
cm
rain 24hr
cm
rain mn
cm
humidity
%
barometer
mb
20260506134528 4 42 0.0 4.8 0.00 0.58 0.00 87 1014.7
20260506133025 3 284 0.0 1.6 0.00 0.58 0.00 86 1014.4
20260506131522 3 284 0.0 1.6 0.00 0.58 0.00 85 1014.0
20260506130022 3 284 0.0 4.8 0.00 0.58 0.00 86 1013.7
20260506124519 3 292 1.6 6.4 0.00 0.58 0.00 86 1013.4
20260506123017 3 286 3.2 8.0 0.00 0.58 0.00 86 1013.2
20260506121515 3 300 6.4 8.0 0.00 0.58 0.00 86 1013.0
20260506120013 3 206 0.0 4.8 0.00 0.58 0.00 86 1012.7
20260506114510 3 103 0.0 9.7 0.00 0.58 0.00 85 1012.7
20260506113007 4 221 0.0 8.0 0.00 0.58 0.00 86 1012.2
20260506111505 4 265 4.8 8.0 0.00 0.58 0.00 86 1011.9
20260506110004 4 261 3.2 6.4 0.00 0.58 0.00 86 1012.0
20260506104608 4 325 0.0 4.8 0.00 0.58 0.00 85 1011.9
20260506103105 4 79 0.0 3.2 0.00 0.58 0.00 86 1011.7
20260506101618 3 79 0.0 4.8 0.00 0.58 0.00 85 1011.6
20260506100052 3 121 0.0 0.0 0.00 0.58 0.00 84 1011.2
20260506094556 4 121 0.0 4.8 0.00 0.58 0.00 83 1010.9
20260506093051 5 283 6.4 11.3 0.00 0.58 0.00 83 1010.8
20260506091545 5 292 3.2 6.4 0.00 0.58 0.00 83 1010.4
20260506090049 5 271 0.0 4.8 0.00 0.58 0.00 83 1010.5
20260506084544 5 271 3.2 6.4 0.00 0.58 0.00 82 1010.3
20260506083038 6 258 0.0 3.2 0.00 0.58 0.00 82 1010.4
20260506081540 6 209 4.8 6.4 0.00 0.58 0.00 81 1010.1
20260506073029 6 259 8.0 12.9 0.00 0.58 0.00 83 1009.9
20260506071524 6 237 0.0 4.8 0.00 0.58 0.00 81 1009.9
20260506061514 6 259 4.8 9.7 0.00 0.58 0.58 81 1008.7
20260506044513 9 166 1.6 4.8 0.00 0.58 0.58 76 1008.2
20260506043105 9 212 1.6 8.0 0.00 0.58 0.58 76 1008.1
20260506041502 9 218 6.4 9.7 0.00 0.58 0.58 77 1007.8
20260506040101 9 238 3.2 6.4 0.00 0.58 0.58 77 1007.4
20260506034602 10 250 3.2 8.0 0.00 0.58 0.58 76 1006.8
20260506033055 10 240 3.2 8.0 0.00 0.58 0.58 76 1006.4
20260506031554 10 246 4.8 8.0 0.00 0.58 0.58 75 1005.9
20260506030051 10 249 3.2 11.3 0.00 0.58 0.58 74 1005.6
20260506024550 11 227 3.2 9.7 0.00 0.58 0.58 73 1005.5
20260506023105 11 208 3.2 8.0 0.00 0.58 0.58 71 1005.3
20260506021547 12 225 6.4 11.3 0.00 0.58 0.58 71 1005.0
20260506020052 12 242 6.4 16.1 0.00 0.58 0.58 71 1005.0
20260506014546 12 193 8.0 14.5 0.00 0.58 0.58 71 1004.7
20260506013052 12 185 8.0 17.7 0.00 0.58 0.58 72 1004.5
20260506011546 12 196 3.2 14.5 0.00 0.58 0.58 72 1004.4
20260506010048 12 244 9.7 17.7 0.00 0.58 0.58 71 1004.3
20260506004542 12 241 9.7 14.5 0.00 0.58 0.58 73 1004.1
20260506003042 12 167 4.8 9.7 0.00 0.58 0.58 72 1004.3
20260506001545 11 174 1.6 6.4 0.00 0.58 0.58 75 1004.3
20260506000041 11 202 1.6 4.8 0.03 0.58 0.58 76 1004.3
20260505234539 11 170 1.6 11.3 0.10 0.58 0.58 78 1003.9
20260505233039 10 202 1.6 11.3 0.23 0.58 0.58 77 1004.1
20260505231538 11 205 9.7 17.7 0.33 0.58 0.58 77 1004.1
20260505230100 10 215 12.9 19.3 0.41 0.56 0.56 80 1004.0
20260505224537 10 214 6.4 11.3 0.41 0.46 0.46 79 1004.2
20260505223041 10 236 6.4 12.9 0.36 0.36 0.36 79 1004.1
20260505221543 10 182 1.6 16.1 0.25 0.25 0.25 77 1004.2
20260505220049 10 298 4.8 25.7 0.13 0.13 0.13 69 1004.0
20260505214536 12 35 6.4 24.1 0.05 0.05 0.05 60 1004.6
20260505213034 15 225 17.7 25.7 0.00 0.00 0.00 51 1004.1
20260505211531 15 360 12.9 30.6 0.00 0.00 0.00 46 1003.5
20260505210033 15 360 17.7 37.0 0.00 0.00 0.00 45 1003.5
20260505204530 16 360 14.5 38.6 0.00 0.00 0.00 45 1003.5
20260505203028 16 360 14.5 32.2 0.00 0.00 0.00 45 1003.4
20260505201524 15 360 20.9 33.8 0.00 0.00 0.00 47 1003.7
20260505200034 15 360 17.7 27.4 0.00 0.00 0.00 48 1003.9
20260505194522 15 360 14.5 24.1 0.00 0.00 0.00 48 1004.4
20260505193020 15 360 12.9 22.5 0.00 0.00 0.00 48 1004.4
20260505191525 14 360 11.3 30.6 0.00 0.00 0.00 49 1004.3
20260505190015 14 360 14.5 30.6 0.00 0.00 0.00 50 1004.2
20260505184512 13 360 12.9 24.1 0.00 0.00 0.00 51 1004.2
20260505183012 13 360 16.1 32.2 0.00 0.00 0.00 52 1004.2
20260505181509 13 360 16.1 30.6 0.00 0.00 0.00 52 1004.1
20260505180008 13 360 17.7 27.4 0.00 0.00 0.00 54 1004.0
20260505174506 13 360 16.1 29.0 0.00 0.00 0.00 56 1004.0
20260505173004 12 360 9.7 20.9 0.00 0.00 0.00 57 1004.0
20260505171501 12 360 12.9 32.2 0.00 0.00 0.00 57 1004.1
20260505164602 12 360 16.1 24.1 0.00 0.00 0.00 58 1003.9
20260505163103 12 360 17.7 29.0 0.00 0.00 0.00 57 1004.0
20260505161607 11 360 17.7 29.0 0.00 0.00 0.00 58 1004.0
20260505153050 11 360 19.3 29.0 0.00 0.00 0.00 59 1003.7
20260505151547 10 360 17.7 24.1 0.00 0.00 0.00 61 1003.8